GW2565 Weather Reports


time (UTC)temp
C
wind
direction
speed
KPH
gust
KPH
rain 1hr
cm
rain 24hr
cm
rain mn
cm
humidity
%
barometer
mb
20260510071620 8 59 0.0 0.0 0.00 0.00 0.00 99 1014.4
20260510071118 8 47 1.6 1.6 0.00 0.00 0.00 99 1014.5
20260510070615 8 37 1.6 1.6 0.00 0.00 0.00 99 1014.6
20260510070113 8 59 1.6 3.2 0.00 0.00 0.00 99 1014.6
20260510065608 8 41 1.6 1.6 0.00 0.00 0.00 99 1014.8
20260510065104 8 49 0.0 0.0 0.00 0.00 0.00 99 1014.9
20260510064555 8 28 0.0 0.0 0.00 0.00 0.00 99 1015.1
20260510064052 8 49 0.0 0.0 0.00 0.00 0.00 99 1015.1
20260510063549 8 29 0.0 0.0 0.00 0.00 0.00 99 1015.1
20260510063046 8 29 0.0 1.6 0.00 0.00 0.00 99 1014.8
20260510062542 8 33 0.0 0.0 0.00 0.00 0.00 99 1014.9
20260510062037 8 33 0.0 0.0 0.00 0.00 0.00 99 1015.0
20260510061534 8 49 0.0 1.6 0.00 0.00 0.00 99 1015.1
20260510061031 8 30 1.6 1.6 0.00 0.00 0.00 99 1015.2
20260510060527 7 30 0.0 0.0 0.00 0.00 0.00 99 1015.3
20260510060023 7 29 0.0 0.0 0.00 0.00 0.00 99 1015.3
20260510055520 7 29 0.0 0.0 0.00 0.00 0.00 99 1015.1
20260510055018 7 24 0.0 1.6 0.00 0.00 0.00 99 1015.3
20260510054513 7 18 0.0 1.6 0.00 0.00 0.00 99 1015.2
20260510054008 7 20 0.0 1.6 0.00 0.00 0.00 99 1015.2
20260510053503 7 346 3.2 4.8 0.00 0.00 0.00 99 1015.2
20260510053001 7 24 0.0 1.6 0.00 0.00 0.00 99 1014.5
20260510052456 7 26 1.6 1.6 0.00 0.00 0.00 99 1014.5
20260510051953 8 4 1.6 1.6 0.00 0.00 0.00 99 1014.7
20260510051448 8 77 1.6 1.6 0.00 0.00 0.00 99 1014.6
20260510050945 8 47 0.0 0.0 0.00 0.00 0.00 99 1014.6
20260510050442 8 47 0.0 1.6 0.00 0.00 0.00 99 1014.6
20260510045939 8 47 0.0 3.2 0.00 0.00 0.00 99 1014.6
20260510045436 7 38 0.0 1.6 0.00 0.00 0.00 99 1014.6
20260510044933 7 29 0.0 1.6 0.00 0.00 0.00 99 1014.6
20260510044430 7 37 0.0 0.0 0.00 0.00 0.00 99 1014.6
20260510043927 7 37 0.0 1.6 0.00 0.00 0.00 99 1014.6
20260510043422 7 29 0.0 1.6 0.00 0.00 0.00 99 1014.5
20260510042921 7 29 0.0 0.0 0.00 0.00 0.00 99 1014.5
20260510042416 7 29 0.0 1.6 0.00 0.00 0.00 99 1014.3
20260510041912 7 28 1.6 1.6 0.00 0.00 0.00 99 1014.2
20260510041410 7 37 0.0 1.6 0.00 0.00 0.00 99 1014.2
20260510040908 7 38 0.0 1.6 0.00 0.00 0.00 99 1014.2
20260510040404 7 37 0.0 1.6 0.00 0.00 0.00 99 1013.9
20260510035900 7 37 0.0 0.0 0.00 1.12 1.12 99 1013.9
20260510035356 8 37 0.0 0.0 0.00 1.12 1.12 99 1014.0
20260510034851 8 46 0.0 0.0 0.00 1.12 1.12 99 1013.8
20260510034350 8 49 0.0 0.0 0.00 1.12 1.12 99 1013.9
20260510033846 8 48 0.0 1.6 0.00 1.12 1.12 99 1013.8
20260510033342 7 48 0.0 1.6 0.00 1.12 1.12 99 1014.0
20260510032839 8 47 0.0 1.6 0.00 1.12 1.12 99 1013.8
20260510032336 7 48 0.0 1.6 0.00 1.12 1.12 99 1013.9
20260510031831 8 47 0.0 0.0 0.00 1.12 1.12 99 1013.9
20260510031326 8 47 0.0 1.6 0.00 1.12 1.12 99 1014.0
20260510030821 8 47 0.0 1.6 0.00 1.12 1.12 99 1013.8
20260510030318 8 48 1.6 1.6 0.00 1.12 1.12 99 1013.9
20260510025815 8 42 0.0 0.0 0.00 1.12 1.12 99 1013.8
20260510025312 8 44 0.0 1.6 0.00 1.12 1.12 99 1013.9
20260510024809 8 38 0.0 0.0 0.00 1.12 1.12 99 1013.9
20260510024306 8 38 0.0 1.6 0.00 1.12 1.12 99 1013.7
20260510023802 8 47 0.0 0.0 0.00 1.12 1.12 99 1013.8
20260510023259 8 41 0.0 1.6 0.00 1.12 1.12 99 1013.7
20260510022755 8 48 0.0 1.6 0.00 1.12 1.12 99 1013.8
20260510022250 8 48 0.0 1.6 0.00 1.12 1.12 99 1013.8
20260510021749 8 48 0.0 1.6 0.00 1.12 1.12 99 1013.8
20260510021247 8 48 1.6 1.6 0.00 1.12 1.12 99 1013.7
20260510020742 8 47 0.0 0.0 0.00 1.12 1.12 99 1014.0
20260510020237 8 47 0.0 1.6 0.00 1.12 1.12 99 1013.9
20260510015734 8 47 0.0 0.0 0.00 1.12 1.12 99 1013.7
20260510015230 8 47 0.0 0.0 0.00 1.12 1.12 98 1013.6
20260510014724 8 47 0.0 0.0 0.00 1.12 1.12 98 1013.7
20260510014222 8 47 0.0 1.6 0.00 1.12 1.12 98 1013.6
20260510013718 9 40 0.0 1.6 0.00 1.12 1.12 98 1013.7
20260510013213 9 47 0.0 1.6 0.00 1.12 1.12 98 1013.6
20260510012708 9 5 0.0 1.6 0.00 1.12 1.12 98 1013.6
20260510012203 9 40 0.0 0.0 0.00 1.12 1.12 98 1013.5
20260510011658 9 25 1.6 4.8 0.00 1.12 1.12 99 1013.6
20260510011154 9 37 0.0 1.6 0.00 1.12 1.12 99 1013.4
20260510010651 8 59 1.6 3.2 0.00 1.12 1.12 99 1013.3
20260510010148 8 62 0.0 1.6 0.00 1.12 1.12 99 1013.5
20260510005644 8 62 1.6 1.6 0.00 1.12 1.12 99 1013.6
20260510005141 8 62 0.0 1.6 0.00 1.12 1.12 99 1013.5
20260510004639 9 62 1.6 1.6 0.00 1.12 1.12 99 1013.3
20260510004137 8 62 1.6 1.6 0.00 1.12 1.12 99 1013.4
20260510003634 9 62 0.0 1.6 0.00 1.12 1.12 99 1013.4
20260510003129 9 62 0.0 0.0 0.00 1.12 1.12 98 1013.3
20260510002623 9 62 0.0 0.0 0.00 1.12 1.12 98 1013.3
20260510002121 9 62 0.0 0.0 0.00 1.12 1.12 98 1013.4
20260510001617 10 62 0.0 1.6 0.00 1.12 1.12 97 1013.1
20260510001117 10 62 0.0 1.6 0.00 1.12 1.12 96 1013.1
20260510000616 10 62 0.0 0.0 0.00 1.12 1.12 95 1012.8
20260510000114 10 62 0.0 0.0 0.00 1.12 1.12 94 1012.6
20260509235610 11 62 0.0 1.6 0.00 1.12 1.12 93 1012.6
20260509235107 11 62 0.0 1.6 0.00 1.12 1.12 93 1012.6
20260509234603 11 62 1.6 1.6 0.00 1.12 1.12 93 1012.6
20260509234101 11 10 1.6 1.6 0.00 1.12 1.12 93 1012.7
20260509233558 11 10 0.0 0.0 0.00 1.12 1.12 93 1012.7
20260509233056 11 20 0.0 1.6 0.00 1.12 1.12 93 1012.7
20260509232552 11 284 0.0 0.0 0.00 1.12 1.12 92 1012.6
20260509232049 11 13 0.0 1.6 0.00 1.12 1.12 92 1012.4
20260509231545 11 32 0.0 1.6 0.00 1.12 1.12 92 1012.3
20260509231043 11 1 1.6 3.2 0.00 1.12 1.12 91 1012.4
20260509230539 11 9 1.6 1.6 0.00 1.12 1.12 92 1012.1
20260509230037 11 140 3.2 4.8 0.00 1.12 1.12 92 1012.0
20260509225532 12 350 3.2 3.2 0.00 1.12 1.12 92 1012.0
20260509225028 12 61 0.0 1.6 0.00 1.12 1.12 92 1012.1
20260509224524 12 20 1.6 4.8 0.00 1.12 1.12 92 1012.1
20260509224020 12 15 1.6 1.6 0.00 1.12 1.12 92 1012.1
20260509223517 12 1 0.0 4.8 0.00 1.12 1.12 91 1012.2
20260509223015 12 9 1.6 1.6 0.00 1.12 1.12 94 1012.2
20260509222511 11 345 3.2 3.2 0.00 1.12 1.12 94 1012.5
20260509222006 11 335 0.0 1.6 0.00 1.12 1.12 93 1012.4
20260509221503 12 233 6.4 9.7 0.00 1.12 1.12 93 1012.5
20260509220959 12 24 1.6 3.2 0.00 1.12 1.12 92 1012.4
20260509220455 12 27 0.0 0.0 0.00 1.12 1.12 94 1012.5
20260509215951 11 27 1.6 1.6 0.00 1.12 1.12 95 1012.8
20260509215446 11 44 1.6 4.8 0.00 1.12 1.12 94 1012.8
20260509214944 11 272 4.8 9.7 0.00 1.12 1.12 95 1013.3
20260509214442 11 19 1.6 3.2 0.00 1.12 1.12 96 1012.8
20260509213938 11 23 1.6 3.2 0.00 1.12 1.12 96 1013.3
20260509213434 11 290 1.6 4.8 0.00 1.12 1.12 96 1013.2
20260509212931 11 31 0.0 3.2 0.00 1.12 1.12 96 1013.3
20260509212429 11 0 1.6 4.8 0.00 1.12 1.12 95 1013.1
20260509211925 11 339 3.2 4.8 0.00 1.12 1.12 95 1013.1
20260509211421 11 94 1.6 4.8 0.00 1.12 1.12 96 1012.9
20260509210917 11 5 1.6 8.0 0.00 1.12 1.12 95 1013.2
20260509210415 11 3 3.2 3.2 0.00 1.12 1.12 95 1012.9
20260509205910 11 32 0.0 4.8 0.00 1.12 1.12 94 1012.9
20260509205409 11 42 3.2 4.8 0.00 1.12 1.12 96 1012.9
20260509204906 11 17 1.6 4.8 0.00 1.12 1.12 97 1012.9
20260509204402 10 358 0.0 3.2 0.00 1.12 1.12 98 1012.8
20260509203859 10 356 1.6 3.2 0.00 1.12 1.12 97 1013.3
20260509203355 10 342 3.2 3.2 0.18 1.12 1.12 98 1013.2
20260509202853 10 1 3.2 3.2 0.18 1.12 1.12 98 1013.4
20260509202348 10 119 0.0 1.6 0.00 1.09 1.09 98 1013.3
20260509201843 10 48 1.6 3.2 0.00 1.09 1.09 98 1013.4
20260509201339 10 338 3.2 3.2 0.00 1.09 1.09 98 1013.4
20260509200836 10 2 3.2 4.8 0.00 1.09 1.09 98 1013.4
20260509200325 10 354 3.2 9.7 0.00 1.09 1.09 98 1013.6
20260509195822 10 19 1.6 4.8 0.00 1.09 1.09 98 1013.7
20260509195317 10 3 1.6 3.2 0.00 1.09 1.09 98 1013.5
20260509194817 10 32 1.6 3.2 0.00 1.09 1.09 98 1013.6
20260509194313 10 100 3.2 3.2 0.18 1.09 1.09 98 1013.6
20260509193810 10 27 1.6 3.2 0.18 1.09 1.09 99 1013.7
20260509193310 10 9 0.0 3.2 0.00 1.07 1.07 99 1013.8
20260509192806 10 3 1.6 3.2 0.13 1.07 1.07 98 1014.0
20260509192305 10 40 1.6 4.8 0.30 1.07 1.07 98 1013.9
20260509191757 10 319 1.6 3.2 0.18 1.04 1.04 98 1013.8
20260509191254 10 145 1.6 4.8 0.00 1.02 1.02 98 1014.0
20260509190749 10 20 3.2 8.0 0.13 1.02 1.02 98 1013.9
20260509190247 10 70 0.0 8.0 0.18 0.99 0.99 98 1014.2
20260509185744 10 55 0.0 8.0 0.18 0.99 0.99 98 1014.2
20260509185240 10 61 3.2 4.8 0.00 0.97 0.97 98 1014.1
20260509184738 10 91 1.6 9.7 0.13 0.97 0.97 98 1014.1
20260509184235 10 46 1.6 9.7 0.13 0.97 0.97 98 1014.3
20260509183731 10 138 4.8 8.0 0.18 0.94 0.94 98 1014.3
20260509183226 10 12 1.6 8.0 0.18 0.94 0.94 98 1014.3
20260509182722 10 156 9.7 11.3 0.00 0.91 0.91 98 1014.3
20260509182220 10 54 0.0 9.7 0.13 0.91 0.91 98 1014.3
20260509181717 10 140 1.6 9.7 0.13 0.91 0.91 98 1014.3
20260509181215 10 45 3.2 4.8 0.00 0.89 0.89 98 1014.3
20260509180712 10 29 0.0 1.6 0.00 0.89 0.89 99 1014.6
20260509180208 10 346 1.6 3.2 0.18 0.89 0.89 99 1014.3
20260509175704 10 48 1.6 3.2 0.00 0.86 0.86 99 1014.3
20260509175201 10 355 3.2 3.2 0.00 0.86 0.86 98 1014.4
20260509174656 10 345 1.6 3.2 0.13 0.86 0.86 99 1014.4
20260509174151 10 359 3.2 3.2 0.13 0.86 0.86 98 1014.3
20260509173648 10 96 1.6 4.8 0.00 0.84 0.84 98 1014.3
20260509173143 10 352 1.6 8.0 0.18 0.84 0.84 98 1014.3
20260509172640 10 22 0.0 4.8 0.18 0.84 0.84 99 1014.2
20260509172136 10 46 3.2 3.2 0.13 0.81 0.81 99 1014.1
20260509171632 10 107 6.4 9.7 0.13 0.81 0.81 98 1014.0
20260509171128 10 98 4.8 4.8 0.18 0.79 0.79 99 1014.1
20260509170625 10 193 3.2 8.0 0.36 0.79 0.79 99 1014.2
20260509170121 10 141 8.0 11.3 0.30 0.76 0.76 99 1014.2
20260509165619 10 48 0.0 3.2 0.30 0.74 0.74 99 1014.0
20260509165115 10 86 1.6 1.6 0.18 0.71 0.71 99 1014.2
20260509164612 10 76 3.2 8.0 0.13 0.69 0.69 99 1014.2
20260509164107 10 74 1.6 9.7 0.13 0.69 0.69 98 1014.2
20260509163606 10 162 4.8 8.0 0.18 0.66 0.66 98 1014.1
20260509163101 10 41 0.0 4.8 0.18 0.66 0.66 98 1014.4
20260509162558 10 45 1.6 3.2 0.00 0.64 0.64 98 1014.3
20260509162054 10 13 1.6 3.2 0.00 0.64 0.64 98 1014.3
20260509161550 10 117 6.4 8.0 0.13 0.64 0.64 98 1014.2
20260509161045 10 44 1.6 1.6 0.13 0.64 0.64 98 1014.4
20260509160541 10 59 1.6 1.6 0.00 0.61 0.61 98 1014.5
20260509160037 10 49 0.0 1.6 0.00 0.61 0.61 99 1014.5
20260509155533 10 121 3.2 4.8 0.00 0.61 0.61 99 1014.6
20260509155029 10 97 4.8 4.8 0.00 0.61 0.61 98 1014.5
20260509154526 10 49 1.6 3.2 0.00 0.61 0.61 99 1014.7
20260509154023 9 44 1.6 1.6 0.00 0.61 0.61 99 1014.4
20260509153520 9 45 0.0 1.6 0.00 0.61 0.61 99 1014.5
20260509153017 9 51 0.0 4.8 0.00 0.61 0.61 99 1014.6
20260509152513 9 50 0.0 3.2 0.00 0.61 0.61 99 1014.8
20260509152009 8 101 6.4 8.0 0.00 0.61 0.61 99 1015.2
20260509151506 8 63 1.6 3.2 0.18 0.61 0.61 99 1015.6
20260509151005 8 45 0.0 3.2 0.13 0.58 0.58 99 1015.3
20260509150501 8 105 3.2 8.0 0.13 0.58 0.58 99 1015.4
20260509150000 8 58 1.6 3.2 0.00 0.56 0.56 99 1015.3
20260509145455 8 52 1.6 1.6 0.00 0.56 0.56 99 1015.1
20260509144950 8 41 0.0 1.6 0.18 0.56 0.56 99 1014.9
20260509144447 8 43 0.0 1.6 0.00 0.53 0.53 99 1015.1
20260509143944 8 46 0.0 3.2 0.13 0.53 0.53 99 1014.9
20260509143441 8 51 0.0 3.2 0.13 0.53 0.53 99 1015.1
20260509142938 8 45 0.0 0.0 0.18 0.51 0.51 99 1014.9
20260509142434 8 45 0.0 1.6 0.18 0.51 0.51 99 1015.0
20260509141930 8 45 1.6 1.6 0.13 0.48 0.48 99 1015.1
20260509141427 8 43 0.0 3.2 0.18 0.46 0.46 99 1015.2
20260509140924 8 56 1.6 1.6 0.18 0.46 0.46 99 1015.0
20260509140420 8 45 0.0 0.0 0.18 0.43 0.43 99 1015.1
20260509135918 8 44 0.0 0.0 0.13 0.41 0.41 99 1015.0
20260509135416 8 51 0.0 3.2 0.13 0.41 0.41 99 1015.2
20260509134913 8 72 1.6 3.2 0.00 0.38 0.38 99 1014.8
20260509134410 8 32 0.0 3.2 0.18 0.38 0.38 99 1015.0
20260509133907 8 43 1.6 3.2 0.18 0.38 0.38 99 1015.0
20260509133404 8 45 1.6 4.8 0.00 0.36 0.36 99 1014.9
20260509132902 8 44 0.0 1.6 0.13 0.36 0.36 99 1015.0
20260509132400 8 32 0.0 1.6 0.13 0.36 0.36 99 1015.1
20260509131857 8 45 0.0 4.8 0.18 0.33 0.33 99 1014.9
20260509131354 8 51 0.0 3.2 0.18 0.33 0.33 99 1015.2
20260509130851 8 44 0.0 0.0 0.13 0.30 0.30 99 1015.0
20260509130346 8 44 1.6 1.6 0.18 0.28 0.28 99 1014.8
20260509125843 8 2 1.6 3.2 0.18 0.28 0.28 99 1015.1
20260509125339 8 82 3.2 4.8 0.00 0.25 0.25 98 1014.8
20260509124835 8 16 1.6 4.8 0.13 0.25 0.25 98 1015.3
20260509124332 8 51 1.6 3.2 0.00 0.23 0.23 98 1015.0
20260509123830 8 49 0.0 1.6 0.00 0.23 0.23 98 1014.9
20260509123328 8 81 1.6 1.6 0.18 0.23 0.23 98 1014.8
20260509122823 8 38 3.2 3.2 0.18 0.23 0.23 98 1014.9
20260509122320 8 68 3.2 3.2 0.00 0.20 0.20 98 1015.1
20260509121817 8 38 1.6 3.2 0.00 0.20 0.20 98 1014.8
20260509121314 8 51 1.6 1.6 0.00 0.20 0.20 98 1015.0
20260509120813 8 50 0.0 1.6 0.00 0.20 0.20 99 1015.0
20260509120310 8 69 1.6 1.6 0.00 0.20 0.20 99 1014.9
20260509115808 8 45 0.0 1.6 0.00 0.20 0.20 99 1015.1
20260509115307 8 51 0.0 1.6 0.00 0.20 0.20 99 1015.1
20260509114803 8 58 1.6 4.8 0.00 0.20 0.20 99 1014.8
20260509114301 8 51 0.0 3.2 0.00 0.20 0.20 99 1015.0
20260509113800 8 47 0.0 1.6 0.00 0.20 0.20 99 1015.0
20260509113256 8 37 0.0 1.6 0.00 0.20 0.20 99 1015.0
20260509112753 8 55 1.6 1.6 0.00 0.20 0.20 99 1014.9
20260509112250 8 38 1.6 1.6 0.00 0.20 0.20 99 1015.0
20260509111747 8 51 0.0 1.6 0.00 0.20 0.20 99 1015.2
20260509111244 7 50 0.0 0.0 0.00 0.20 0.20 99 1015.1
20260509110741 7 49 0.0 1.6 0.00 0.20 0.20 99 1015.0
20260509110238 7 37 0.0 0.0 0.13 0.20 0.20 99 1015.3
20260509105736 7 38 0.0 1.6 0.13 0.20 0.20 99 1015.0
20260509105234 7 45 0.0 1.6 0.00 0.18 0.18 99 1015.1
20260509104730 7 57 1.6 3.2 0.00 0.18 0.18 99 1015.0
20260509104227 7 37 0.0 0.0 0.00 0.18 0.18 99 1015.4
20260509103725 7 37 0.0 1.6 0.00 0.18 0.18 99 1015.4
20260509103222 7 37 0.0 0.0 0.00 0.18 0.18 99 1015.3
20260509102720 7 37 0.0 0.0 0.00 0.18 0.18 99 1015.3
20260509102217 7 37 0.0 0.0 0.00 0.18 0.18 99 1015.3
20260509101714 7 37 0.0 0.0 0.00 0.18 0.18 99 1015.3
20260509101210 7 37 0.0 0.0 0.00 0.18 0.18 99 1015.1
20260509100708 7 37 0.0 0.0 0.00 0.18 0.18 99 1015.1
20260509100204 7 37 0.0 0.0 0.00 0.18 0.18 99 1015.0
20260509095701 7 37 0.0 0.0 0.00 0.18 0.18 99 1015.1
20260509095158 7 37 0.0 0.0 0.00 0.18 0.18 99 1015.1
20260509094655 7 37 0.0 0.0 0.00 0.18 0.18 99 1015.0
20260509094152 7 37 0.0 0.0 0.00 0.18 0.18 99 1015.1
20260509093651 7 38 0.0 1.6 0.00 0.18 0.18 99 1014.9
20260509093147 7 38 0.0 1.6 0.18 0.18 0.18 99 1015.1
20260509092645 7 38 0.0 0.0 0.18 0.18 0.18 99 1015.3
20260509092143 7 38 0.0 0.0 0.00 0.15 0.15 99 1015.3
20260509091641 7 38 0.0 0.0 0.00 0.15 0.15 99 1015.3
20260509091137 7 38 0.0 0.0 0.00 0.15 0.15 99 1015.6
20260509090635 7 38 0.0 0.0 0.00 0.15 0.15 99 1015.7
20260509090132 7 38 0.0 0.0 0.00 0.15 0.15 99 1015.7
20260509085629 7 38 0.0 0.0 0.00 0.15 0.15 99 1015.8
20260509085125 7 38 0.0 0.0 0.00 0.15 0.15 99 1015.7
20260509084623 7 38 1.6 1.6 0.00 0.15 0.15 99 1015.4
20260509084120 7 38 0.0 1.6 0.00 0.15 0.15 99 1015.7
20260509083617 7 37 0.0 1.6 0.00 0.15 0.15 99 1015.6
20260509083113 7 37 0.0 0.0 0.00 0.15 0.15 99 1015.6
20260509082611 7 37 0.0 0.0 0.00 0.15 0.15 99 1015.8
20260509082107 7 63 0.0 1.6 0.00 0.15 0.15 99 1015.6
20260509081605 7 50 0.0 1.6 0.00 0.15 0.15 99 1015.4
20260509081101 7 50 0.0 1.6 0.00 0.15 0.15 99 1015.4
20260509080600 7 37 0.0 0.0 0.00 0.15 0.15 99 1015.6
20260509080057 7 37 0.0 0.0 0.00 0.15 0.15 99 1015.6
20260509075555 7 37 0.0 1.6 0.00 0.15 0.15 99 1015.3
20260509075052 7 25 0.0 0.0 0.00 0.15 0.15 99 1015.4
20260509074549 7 25 0.0 0.0 0.00 0.15 0.15 99 1015.3
20260509074046 7 25 0.0 0.0 0.18 0.15 0.15 99 1015.3
20260509073542 7 25 0.0 0.0 0.18 0.15 0.15 99 1015.4
20260509073039 7 25 1.6 1.6 0.00 0.13 0.13 98 1015.3
20260509072535 7 25 0.0 1.6 0.00 0.13 0.13 98 1015.4
20260509072032 7 25 0.0 0.0 0.00 0.13 0.13 98 1015.4